Castlegar, British Columbia

12:56 PM PST on February 27, 2017 (GMT -0800)
Castlegar

Weather History for CYCG - July, 2013

Change the Weather History Date:

Sunday, July 14, 2013

  Actual Average Record
Temperature  
Mean Temperature 72 °F -  
Max Temperature 86 °F 81 °F 102 °F (2007)
Min Temperature 57 °F 54 °F 46 °F (2010)
Cooling Degree Days 6    
Growing Degree Days 22 (Base 50)    
Moisture  
Dew Point 47 °F    
Average Humidity 50    
Maximum Humidity 97    
Minimum Humidity 20    
Precipitation  
Precipitation 0.00 in 0.06 in - ()
Sea Level Pressure  
Sea Level Pressure 30.04 in    
Wind  
Wind Speed 5 mph ()    
Max Wind Speed 14 mph    
Max Gust Speed 23 mph    
Visibility 15.0 miles    
Events      
Averages and records for this station are not official NWS values.
T = Trace of Precipitation, MM = Missing Value Source: Averaged Metar Reports

Daily Weather History Graph

Daily Weather History Graph

Search for Another Location

Airport or City:

Trip Planner

Search our weather history database for the weather conditions in past years. The results will help you decide how hot, cold, wet, or windy it might be!

Date:

Astronomy

Jul. 14, 2013 Rise Set
Actual Time 5:00 AM PDT 8:51 PM PDT
Civil Twilight 4:19 AM PDT 9:32 PM PDT
Nautical Twilight 3:22 AM PDT 10:29 PM PDT
Astronomical Twilight 1:52 AM PDT 11:57 PM PDT
Moon 12:02 PM PDT (7/14) 11:23 PM PDT (7/14)
Length of Visible Light 17h 13m
Length of Day
15h 51m
Waxing Crescent, 36% of the Moon is Illuminated
Jul 14
Waxing Crescent
Jul 15
First Quarter
Jul 22
Full
Jul 29
Last Quarter
Aug 6
New

Hourly Weather History & Observations

Time (PDT) Temp. Dew Point Humidity Pressure Visibility Wind Dir Wind Speed Gust Speed Precip Events Conditions
5:00 AM 63 °F 62 °F 96% 30.27 in - West 4.6 mph - -  
6:00 AM 44.6 °F 42.8 °F 93% 30.15 in 15.0 mi Calm Calm - N/A   Clear
7:00 AM 51.8 °F 46.4 °F 82% 30.15 in 15.0 mi Calm Calm - N/A   Clear
8:00 AM 57.2 °F 48.2 °F 72% 30.14 in 15.0 mi Calm Calm - N/A   Clear
9:00 AM 64.4 °F 48.2 °F 56% 30.12 in 15.0 mi SSW 3.5 mph - N/A   Partly Cloudy
10:00 AM 68.0 °F 48.2 °F 49% 30.09 in 15.0 mi SSW 3.5 mph - N/A   Partly Cloudy
11:00 AM 66 °F 62 °F 82% 30.22 in - WSW 10.4 mph - -  
11:00 AM 73.4 °F 46.4 °F 38% 30.06 in 15.0 mi SSW 3.5 mph - N/A   Partly Cloudy
12:00 PM 80.6 °F 46.4 °F 30% 30.02 in 15.0 mi South 11.5 mph - N/A   Partly Cloudy
1:00 PM 84.2 °F 41.0 °F 22% 30.00 in 15.0 mi SW 10.4 mph 17.3 mph N/A   Partly Cloudy
2:00 PM 84.2 °F 39.2 °F 20% 29.97 in 15.0 mi South 11.5 mph - N/A   Partly Cloudy
3:00 PM 84.2 °F 42.8 °F 23% 29.95 in 15.0 mi South 10.4 mph 19.6 mph N/A   Partly Cloudy
4:00 PM 86.0 °F 42.8 °F 22% 29.93 in 15.0 mi SSW 13.8 mph 23.0 mph N/A   Partly Cloudy
5:00 PM 61 °F 60 °F 96% 30.18 in - SW 4.6 mph - -  
5:00 PM 86.0 °F 42.8 °F 22% 29.91 in 15.0 mi SW 9.2 mph 17.3 mph N/A   Partly Cloudy
6:00 PM 84.2 °F 41.0 °F 22% 29.89 in 15.0 mi South 13.8 mph - N/A   Partly Cloudy
7:00 PM 84.2 °F 41.0 °F 22% 29.86 in 15.0 mi SW 8.1 mph - N/A   Partly Cloudy
8:00 PM 78.8 °F 42.8 °F 28% 29.86 in 15.0 mi SSE 3.5 mph - N/A   Partly Cloudy
9:00 PM 73.4 °F 41.0 °F 31% 29.86 in 15.0 mi SE 4.6 mph - N/A   Partly Cloudy
11:00 PM 59 °F 58 °F 97% 30.16 in - SW 2.3 mph - -